Location: Im Fang
(46.6019°N, 7.2397°E)
Time: 17:24:12
(UTC+00:00)

ATLAS 5 CENTAUR R/B - Pass Details

Date: 08 December 2019
Orbit: 550 x 1108 km, 63.4° (Epoch: 26 January)

Event Time Altitude Azimuth Distance (km) Brightness Sun altitude
Exits shadow 05:01:32 25° 340° (NNW) 1,337 3.0 -19.8°
Drops below altitude 10° 05:05:06 10° 24° (NNE) 2,201 4.5 -19.2°
Sets 05:08:01 0° 38° (NE) 3,232 5.6 -18.7°
